Showing default

LUOJIA-1 01, 43485

Orbit data source: Space-Track

LUOJIA-1 01, 43485 is a payload satellite owned by Wuhan daxue (CN) in SSO that was launched on Sat, 02 Jun 2018 UTC via a CHANG ZHENG 2D launch vehicle from the Jiuquan Satellite Launch Center, China (JSC). Payload-class satellites include a variety of spacecraft equipped with specific instruments for various scientific and technological missions. These include communications satellites like Starlink; space stations such as the ISS; scientific satellites like the Hubble; Earth observation satellites from companies like Planet Labs, Umbra, and HawkEye 360; GPS; miniature CubeSats for education and research; and military/defense satellites.

Loading next visibility...
Identifier
43485, 2018-048B
Orbit
SSO
Country
Flag of CNCN / PRC
Related business
Manufacturer
Wuhan daxue
Mission
Operational Amateur Imaging
Bus & Motor
CUBESAT 6U, Unknown motor
Mass
10 kg wet, 10 kg dry
Launch date (UTC)
2018-06-02 (8 years ago)
Launch vehicle
CHANG ZHENG 2D
Launch site
Jiuquan Satellite Launch Center, China (JSC)
Object type
Payload
Rocket body
Debris
Shape & HBR
Box + 1 Pan, 0.3 m
Radar Cross Section
0.092 m², Medium (>0.1 m² and < 1m²)

Expand to show TLE details & history
Last TLE update: 7 hours ago

TLE from 7 hours ago
0 LUOJIA-1 01
1 43485U 18048B   26125.78668179  .00001963  00000-0  22447-3 0  9994
2 43485  97.8102 204.6591 0007438 259.1455 100.8925 14.87130369427913
Epoch: 2026-05-05T18:52Z
TLE epoch observation values (Epoch: 2026-05-05T18:52:49.306Z)
Latitude
0.00005°
Longitude
57.79713°
Altitude
610.927 km
Speed
7.553 km/s
True Right ascension
13h 38m 38s
True Declination
0° 00' 00"
Sunlit
Object was in full shadow at epoch
Visualization orbit readout
Latitude
Unknown
Longitude
Unknown
Altitude
Unknown
Speed
Unknown
Apparent Right ascension
Unknown
Apparent Declination
Unknown
Sunlit
N/A
Visualization observer readout
Local Sidereal Time
10:11:53
Azimuth
Unknown
Elevation
Unknown
Doppler factor
Unknown
Orbital elements
Apogee altitude
609.128 km
Perigee altitude
598.741 km
Semi-major axis
6,982.071 km
Eccentricity
0.00074
Inclination
97.8102°
RAAN
204.6591°
Arg. of periapsis
259.1455°
True anomaly
100.97618°
Mean anomaly
100.8925°
Eccentric anomaly
100.93434°
Mean motion
3.7202 °/min
Orbital period
96.77 mins
BSTAR
0.00022447
Loading maneuver chart data...
Computing Atmospheric mass density...
Loading historical data...
Loading historical data...
Loading historical data...
Loading historical data...
Loading historical data...
Loading historical data...
Loading historical data...
Other satellites on launch #48 in the year 2018 (2018-06-02 UTC)

Documentation

Showing up to 5 results
|